Regional Weather Roundup
Issued by NWS

Home | Current Version | Previous Version | Text Only | Print | Product List | Glossary On
Versions: 1 2 3 4 5 6 7 8 9 10 11 12 13 14 15 16 17 18 19 20 21 22 23 24 25 26 27 28 29 30 31 32 33 34 35 36 37 38 39 40 41 42 43 44 45 46 47 48 49 50
000
ASUS43 KMPX 181710
RWRMN
WEATHER ROUNDUP FOR MINNESOTA
NATIONAL WEATHER SERVICE TWIN CITIES/CHANHASSEN MN
1200 PM CDT FRI AUG 18 2017


NOTE: "FAIR" INDICATES FEW OR NO CLOUDS BELOW 12,000 FEET WITH NO
SIGNIFICANT WEATHER AND/OR OBSTRUCTIONS TO VISIBILITY. N/A MEANS
CURRENT SKY AND/OR WEATHER CONDITIONS ARE NOT AVAILABLE.

MNZ060>063-068>070-181800-
   Twin Cities Metro

CITY           SKY/WX    TMP DP  RH WIND       PRES   REMARKS
TWIN CITIES    LGT RAIN  67  62  84 W7        29.91R
ST PAUL        CLOUDY    67  63  87 SW7       29.91R
CRYSTAL        LGT RAIN  66  60  81 SW7       29.89S
BLAINE         CLOUDY    70  64  83 SW6       29.90R
LAKEVILLE      LGT RAIN  63  63 100 W7        29.93R
EDEN PRAIRIE   LGT RAIN  65  63  93 SW6       29.91S FOG
SOUTH ST PAUL  CLOUDY    66  64  91 W5        29.91R
LAKE ELMO      LGT RAIN  68  63  83 SW7       29.91S
$$
MNZ001>005-007-008-013>017-022>024-027-028-181800-
   Northwest Minnesota

CITY           SKY/WX    TMP DP  RH WIND       PRES   REMARKS
BEMIDJI        SUNNY     75  57  53 NW6       29.87S
HALLOCK        CLOUDY    73  57  56 CALM      29.84F
ROSEAU         CLOUDY    75  57  53 CALM      29.83S
WARROAD        SUNNY     75  63  64 W7        29.83S
THIEF RVR FALL SUNNY     77  56  48 NE6       29.86F
CROOKSTON      SUNNY     77  59  53 NE5       29.84F
FOSSTON        SUNNY     79  57  47 NW6       29.87S
DETROIT LAKES  PTSUNNY   68  61  77 W6        29.91S
MOORHEAD       CLOUDY    72  61  68 CALM      29.89S
PARK RAPIDS    MOSUNNY   76  61  59 W6        29.88S
MAHNOMEN       FAIR      73  61  65 CALM      29.87F
$$
MNZ006-009>011-018-025>026-181800-
   North Central Minnesota

CITY           SKY/WX    TMP DP  RH WIND       PRES   REMARKS
BAUDETTE       SUNNY     76  56  49 N5        29.82F
FLAG ISLAND    MOSUNNY   73  54  49 CALM      29.81S
INTL FALLS     SUNNY     75  58  55 NW6       29.84R
WASKISH        SUNNY     73  63  68 W3        29.84F
BIG FORK       CLOUDY    75  55  50 NW5       29.85S
LONGVILLE      PTSUNNY   73  63  68 S3        29.88S
GRAND RAPIDS   CLOUDY    72  61  68 NW7       29.88S
CRANE LAKE     CLOUDY    66  63  88 CALM      29.85F
ORR            CLOUDY    72  57  60 W7        29.82F
COOK           CLOUDY    66  61  82 CALM      29.86S
WALKER         FAIR      73  61  65 W7        29.88R
$$
MNZ012-019>021-037-181800-
   Northeast Minnesota

CITY           SKY/WX    TMP DP  RH WIND       PRES   REMARKS
DULUTH         CLOUDY    69  60  73 NW7       29.87R
ELY            CLOUDY    64  55  72 SW5       29.85S
HIBBING        CLOUDY    67  59  75 CALM      29.86S
EVELETH        CLOUDY    65  58  76 W3        29.87S
DULUTH HARBOR  CLOUDY    70  63  78 CALM      29.86R
TWO HARBORS    CLOUDY    72  63  73 CALM      29.83S
SILVER BAY     CLOUDY    72  57  60 W3        29.83R
GRAND MARAIS     N/A     70  55  59 MISG      29.79S
G MARAIS ARPRT CLOUDY    63  50  63 CALM      29.84S
$$
MNZ029>031-032-039>041-046>048-054>057-064-181800-
   West Central Minnesota

CITY           SKY/WX    TMP DP  RH WIND       PRES   REMARKS
FERGUS FALLS   MOSUNNY   66  64  94 CALM      29.91R
WHEATON        LGT RAIN  66  61  82 NW3       29.93R
MORRIS         CLOUDY    70  61  73 SW5       29.90R
ALEXANDRIA     PTSUNNY   71  60  68 SW12      29.93S
ELBOW LAKE     CLOUDY    67  63  86 NW7       29.92R FOG
WADENA         CLOUDY    73  61  64 S6        29.89S
GLENWOOD       CLOUDY    70  61  73 SW10      29.93S
APPLETON       CLOUDY    72  61  68 S3        29.89S
BENSON         HVY RAIN  64  61  88 SW7       29.92F
ORTONVILLE     PTSUNNY   72  61  68 MISG      29.91R
MADISON        PTSUNNY   75  64  69 S6        29.89F
WILLMAR        FAIR      68  63  83 SW7       29.94R
$$
MNZ033>034-036-042>043-049>051-058-059-181800-
   Central Minnesota

CITY           SKY/WX    TMP DP  RH WIND       PRES   REMARKS
ST CLOUD       CLOUDY    66  63  90 W8        29.91R
SAUK CENTRE    FAIR      67  60  78 SW8       29.92F
PAYNESVILLE    CLOUDY    64  62  92 W6        29.93R
AITKIN         CLOUDY    68  61  77 CALM      29.87S
PINE RIVER     CLOUDY    70  59  68 CALM      29.91F
BRAINERD       CLOUDY    69  61  75 W5        29.89S
STAPLES        CLOUDY    70  59  68 SW3       29.90S
LONG PRAIRIE   PTSUNNY   66  59  77 S6        29.92S
LITTLE FALLS   CLOUDY    68  61  77 W3        29.91S
LITCHFIELD     CLOUDY    66  63  88 W5        29.92S
BUFFALO        LGT RAIN  66  61  83 W3        29.93R
MAPLE LAKE     PTSUNNY   67  64  89 W3        29.92S
HUTCHINSON     CLOUDY    68  64  86 SW6       29.94R
$$
MNZ037-044-045-052-053-181800-
   East Central Minnesota

CITY           SKY/WX    TMP DP  RH WIND       PRES   REMARKS
PRINCETON      CLOUDY    70  64  83 W6        29.90S
MORA           CLOUDY    64  61  88 CALM      29.91S
CAMBRIDGE      CLOUDY    70  64  83 CALM      29.89F
RUSH CITY      PTSUNNY   67  62  83 CALM      29.89S
MOOSE LAKE     PTSUNNY   64  61  88 CALM      29.86F
HINCKLEY       FAIR      68  63  83 CALM      29.89S
CLOQUET        CLOUDY    66  57  72 CALM      29.88R
MCGREGOR       CLOUDY    64  61  88 CALM      29.89S
$$
MNZ071>073-080-081-089-090-097-098-181800-
   Southwest Minnesota

CITY           SKY/WX    TMP DP  RH WIND       PRES   REMARKS
MONTEVIDEO     PTSUNNY   68  66  94 SW5       29.91F
GRANITE FALLS  CLOUDY    70  64  81 SE5       29.93F
CANBY          PTSUNNY   76  61  60 CALM      29.91S
MARSHALL       SUNNY     75  58  55 SW7       29.92F
REDWOOD FALLS  CLOUDY    66  61  84 SW7       29.93S
OLIVIA         MOSUNNY   68  63  83 W10       29.92S
PIPESTONE      SUNNY     73  61  64 SW8       29.94S
WINDOM         SUNNY     72  59  64 CALM      29.94F
WORTHINGTON    SUNNY     71  61  70 VRB3      29.96S
JACKSON        SUNNY     70  61  73 CALM      29.96S
TRACY          MOSUNNY   74  63  68 SW3       29.93F
SLAYTON        SUNNY     70  58  64 CALM      29.95F
$$
MNZ065>067-074>077-082>085-091>093-181800-
   South Central Minnesota

CITY           SKY/WX    TMP DP  RH WIND       PRES   REMARKS
MANKATO        RAIN      61  60  97 SW5       29.95F FOG
NEW ULM        CLOUDY    66  61  82 S7        29.93S
ST JAMES       PTSUNNY   70  61  73 CALM      29.95S
FAIRMONT       CLOUDY    68  62  81 CALM      29.96R
GLENCOE        CLOUDY    66  65  94 W3        29.92R
FARIBAULT      CLOUDY    64  63  94 SW5       29.94R
OWATONNA       CLOUDY    64  63  94 W3        29.94S
WASECA         LGT RAIN  61  59  94 W7        29.96S
ALBERT LEA     CLOUDY    66  64  94 CALM      29.95R
$$
MNZ078>079-086>088-094>096-181800-
   Southeast Minnesota

CITY           SKY/WX    TMP DP  RH WIND       PRES   REMARKS
ROCHESTER      CLOUDY    65  62  90 NW7       29.93F
RED WING       LGT RAIN  66  63  88 W6        29.90S
DODGE CENTER   CLOUDY    63  61  94 W8        29.94S
WINONA         CLOUDY    70  61  73 NW7       29.90F
AUSTIN         CLOUDY    64  63  94 W5        29.94R
PRESTON        CLOUDY    65  58  78 W3        29.94R
$$
ABBREVIATIONS USED IN REMARKS
   TC - TEMPERATURES IN CELSIUS
  WCI - WIND CHILL INDEX
   HX - HEAT INDEX
  VSB - VISIBILITY
$$




USA.gov is the U.S. government's official web portal to all federal, state and local government web resources and services.